{"data":{"norad_id":69284,"intl_designator":"2026-118T","name":"KUIPER-00600","alt_names":[],"object_type":"PAYLOAD","status":"ACTIVE","operator":null,"country":"US","launch_date":"2026-05-29","launch_site_code":"AFETR","launch_vehicle":null,"mission":null,"orbit_class":"UNKNOWN","rcs_meters":null,"size_class":null,"mass_kg":null,"dimensions":null,"purposes":[],"wikipedia_slug":null,"has_3d_model":false,"image_url":null,"decayed_at":null,"tle_current":{"epoch":"2026-09-19T16:18:49.744224Z","epoch_age_seconds":101716,"freshness":"FRESH","line1":"1 69284U 26118T   26262.67974241 -.00002995  00000+0 -36381-3 0  9995","line2":"2 69284  51.9022 327.7399 0001785  49.0645 311.0472 14.79948156 18369","mean_motion":14.79948156,"eccentricity":0.0001785,"inclination_deg":51.9022,"raan_deg":327.7399,"arg_perigee_deg":49.0645,"mean_anomaly_deg":311.0472,"bstar":-0.00036381,"rev_number":1836,"period_min":97.300705714721,"perigee_km":628.23692482269,"apogee_km":630.73864687124,"semimajor_km":7007.624785847,"source":"CELESTRAK","updated_at":"2026-09-20T09:00:24.781169Z"}}}